DECAYED

STARLINK-2191, 48565 (Decayed)

Orbit data source: Space-Track

STARLINK-2191, 48565 was a payload satellite owned by SpaceX/Seattle (US) in LEO that was launched on Sat, 15 May 2021 UTC via an FALCON 9 launch vehicle from the Air Force Eastern Test Range (AFETR). Payload-class satellites include a variety of spacecraft equipped with specific instruments for various scientific and technological missions. These include communications satellites like Starlink; space stations such as the ISS; scientific satellites like the Hubble; Earth observation satellites from companies like Planet Labs, Umbra, and HawkEye 360; GPS; miniature CubeSats for education and research; and military/defense satellites.

Not visible in the next 10 days
Identifier
48565, 2021-041N
Orbit
Decayed
Country
Flag of USUS
Related business
Manufacturer
SpaceX/Seattle
Mission
Decayed Commercial Communications
Bus & Motor
STARLINK, Unknown motor
Mass
260 kg wet, ~248 kg dry
Launch date (UTC)
2021-05-15 (5 years ago)
Launch vehicle
FALCON 9
Launch site
Air Force Eastern Test Range (AFETR)
Object type
Payload
Rocket body
Debris
Shape & HBR
Box + 1 Pan, 10.1 m
Radar Cross Section
13.562 m², Large (>1 m²)

Expand to show TLE details & history
Last TLE update: 5 months ago

TLE from 5 months ago
0 STARLINK-2191
1 48565U 21041N   25211.54714566  .18720107  12626-4  29921-3 0  9998
2 48565  53.0087 306.4603 0007067 291.2562 169.9544 16.47833897233600
Epoch: 2025-07-30T13:07Z
TLE epoch observation values (Epoch: 2025-07-30T13:07:53.385Z)
Latitude
51.73523°
Longitude
-90.66252°
Altitude
155.73 km
Speed
7.817 km/s
True Right ascension
03h 38m 56s
True Declination
51° 33' 09"
Sunlit
Object was in daylight at epoch
Visualization orbit readout
Latitude
Unknown
Longitude
Unknown
Altitude
Unknown
Speed
Unknown
Apparent Right ascension
Unknown
Apparent Declination
Unknown
Sunlit
N/A
Visualization observer readout
Local Sidereal Time
19:45:19
Azimuth
Unknown
Elevation
Unknown
Doppler factor
Unknown
Orbital elements
Apogee altitude
149.951 km
Perigee altitude
140.73 km
Semi-major axis
6,523.478 km
Eccentricity
0.00071
Inclination
53.0087°
RAAN
306.4603°
Arg. of periapsis
291.2562°
True anomaly
169.96851°
Mean anomaly
169.9544°
Eccentric anomaly
169.96146°
Mean motion
4.11931 °/min
Orbital period
87.39 mins
BSTAR
0.00029921
Loading maneuver chart data...
Computing Atmospheric mass density...
Loading historical data...
Loading historical data...
Loading historical data...
Loading historical data...
Loading historical data...
Loading historical data...
Loading historical data...

Documentation

Showing up to 5 results
|